COSMO-SKYMED 3

Last updated on Mon Sep 07 2026 00:02:45 GMT+0000 (Coordinated Universal Time)

1 33412U 08054A 26249.60439830 .00001698 00000+0 11632-3 0 9995 2 33412 97.8181 109.5089 0015543 356.7713 3.3411 15.07391052969202
UTC large
Height (km)
Speed (km/s)
/
Latitude / Longitude
Inclination (degrees)
Orbital Period (minutes)
Azimuth
Elevation
Range (km)
Doppler Factor

Next 0 passes for location: London (51.5072 / 0.1276)

No passes found over London.
COSMO-SKYMED 3